FW9535 Weather Reports


Display with metric or nautical units.
time (UTC)temp
F
wind
direction
speed
MPH
gust
MPH
rain 1hr
in
rain 24hr
in
rain mn
in
humidity
%
barometer
mb
20260904033940 75 300 2.0 2.0 0.00 0.00 0.00 49 1016.3
20260904032439 75 217 2.0 2.0 0.00 0.00 0.00 47 1017.0
20260904030936 74 313 1.0 2.0 0.00 0.00 0.00 47 1016.7
20260904025433 72 229 3.0 3.0 0.00 0.00 0.00 49 1017.4
20260904023930 71 202 4.0 5.0 0.00 0.00 0.00 50 1017.2
20260904022428 73 288 0.0 1.0 0.00 0.00 0.00 45 1017.3
20260904020926 76 271 4.0 6.0 0.00 0.00 0.00 45 1017.9
20260904015422 75 307 4.0 6.0 0.00 0.00 0.00 45 1017.9
20260904013917 74 327 4.0 7.0 0.00 0.00 0.00 43 1018.3
20260904012414 74 307 2.0 2.0 0.00 0.00 0.00 47 1018.5
20260904010910 73 317 5.0 7.0 0.00 0.00 0.00 44 1019.1
20260904005409 72 256 2.0 3.0 0.00 0.00 0.00 45 1019.3
20260904003906 72 201 5.0 5.0 0.00 0.00 0.00 50 1019.5
20260904002406 71 276 1.0 1.0 0.00 0.00 0.00 51 1019.5
20260904000906 70 245 2.0 5.0 0.00 0.00 0.00 53 1019.6
20260903235402 69 255 3.0 6.0 0.00 0.00 0.00 52 1019.6
20260903233859 69 211 3.0 5.0 0.00 0.00 0.00 54 1019.9
20260903232356 68 245 4.0 6.0 0.00 0.00 0.00 55 1020.2
20260903230852 67 293 3.0 5.0 0.00 0.00 0.00 57 1020.5
20260903225351 66 261 1.0 2.0 0.00 0.00 0.00 60 1020.5
20260903223851 65 286 2.0 5.0 0.00 0.00 0.00 61 1020.5
20260903222349 64 213 3.0 3.0 0.00 0.00 0.00 63 1020.6
20260903220847 62 317 5.0 6.0 0.00 0.00 0.00 65 1020.6
20260903215343 60 226 1.0 2.0 0.00 0.00 0.00 69 1020.5
20260903213842 59 212 2.0 2.0 0.00 0.00 0.00 70 1020.2
20260903212341 59 275 4.0 6.0 0.00 0.00 0.00 71 1020.2
20260903210838 58 258 2.0 2.0 0.00 0.00 0.00 71 1019.7
20260903205338 58 209 4.0 6.0 0.00 0.00 0.00 72 1020.0
20260903203836 57 246 1.0 2.0 0.00 0.00 0.00 74 1019.8
20260903202333 56 292 4.0 7.0 0.00 0.00 0.00 75 1019.2
20260903200832 56 258 2.0 3.0 0.00 0.00 0.00 74 1019.2
20260903195332 56 282 3.0 5.0 0.00 0.00 0.00 75 1019.1
20260903193829 56 279 1.0 1.0 0.00 0.00 0.00 75 1019.2
20260903192328 56 226 2.0 3.0 0.00 0.00 0.00 75 1019.0
20260903190825 56 287 1.0 2.0 0.00 0.00 0.00 74 1018.8
20260903185320 57 243 3.0 5.0 0.00 0.00 0.00 73 1018.6
20260903183819 57 216 3.0 5.0 0.00 0.00 0.00 72 1018.7
20260903182319 57 217 5.0 8.0 0.00 0.00 0.00 72 1018.6
20260903180819 57 264 1.0 1.0 0.00 0.00 0.00 72 1018.2
20260903175318 57 217 4.0 5.0 0.00 0.00 0.00 71 1018.3
20260903173814 58 186 3.0 5.0 0.00 0.00 0.00 70 1018.2
20260903172312 58 228 4.0 7.0 0.00 0.00 0.00 69 1017.9
20260903170808 58 308 3.0 5.0 0.00 0.00 0.00 69 1018.0
20260903165305 58 271 1.0 2.0 0.00 0.00 0.00 69 1018.0
20260903163802 59 235 5.0 8.0 0.00 0.00 0.00 68 1018.1
20260903162306 59 232 3.0 6.0 0.00 0.00 0.00 68 1018.3
20260903160801 59 301 4.0 6.0 0.00 0.00 0.00 67 1018.5
20260903155300 58 198 2.0 5.0 0.00 0.00 0.00 67 1018.2
20260903153758 59 212 2.0 3.0 0.00 0.00 0.00 66 1018.5
20260903152257 59 238 3.0 3.0 0.00 0.00 0.00 65 1018.5
20260903150753 59 224 5.0 7.0 0.00 0.00 0.00 65 1018.2
20260903145250 58 276 2.0 2.0 0.00 0.00 0.00 66 1018.3
20260903143746 59 216 2.0 2.0 0.00 0.00 0.00 66 1018.2
20260903142245 59 231 4.0 7.0 0.00 0.00 0.00 65 1018.3
20260903140742 60 190 6.0 9.0 0.00 0.00 0.00 63 1018.1
20260903135240 60 208 3.0 3.0 0.00 0.00 0.00 63 1017.9
20260903133737 59 220 2.0 3.0 0.00 0.00 0.00 63 1017.7
20260903132235 60 173 5.0 8.0 0.00 0.00 0.00 62 1017.9
20260903130730 60 230 3.0 5.0 0.00 0.00 0.00 62 1017.3
20260903125225 60 196 7.0 10.0 0.00 0.00 0.00 62 1017.4
20260903123724 60 190 4.0 6.0 0.00 0.00 0.00 62 1017.2
20260903122224 60 196 6.0 10.0 0.00 0.00 0.00 62 1017.3
20260903120723 60 209 6.0 8.0 0.00 0.00 0.00 63 1016.8
20260903115218 60 205 7.0 9.0 0.00 0.00 0.00 64 1016.8
20260903113714 60 206 4.0 6.0 0.00 0.00 0.00 63 1016.6
20260903112214 60 335 4.0 5.0 0.00 0.00 0.00 62 1016.5
20260903110710 60 260 7.0 10.0 0.00 0.00 0.00 63 1016.2
20260903105206 60 231 6.0 10.0 0.00 0.00 0.00 63 1015.6
20260903103702 60 241 5.0 6.0 0.00 0.00 0.00 63 1015.1
20260903102159 60 164 10.0 15.0 0.00 0.00 0.00 62 1014.8
20260903100654 60 202 7.0 10.0 0.00 0.00 0.00 62 1014.5
20260903095151 61 185 4.0 6.0 0.00 0.00 0.00 61 1014.6
20260903093649 61 207 6.0 8.0 0.00 0.00 0.00 62 1014.4
20260903092145 61 314 3.0 6.0 0.00 0.00 0.00 60 1014.4
20260903090645 62 207 7.0 13.0 0.00 0.00 0.00 60 1014.5
20260903085145 62 232 3.0 3.0 0.00 0.00 0.00 59 1014.6
20260903083639 63 209 8.0 15.0 0.00 0.00 0.00 59 1013.7
20260903082135 64 210 8.0 11.0 0.00 0.00 0.00 57 1013.4
20260903080633 64 213 5.0 7.0 0.00 0.00 0.00 57 1013.2
20260903075131 65 190 4.0 7.0 0.00 0.00 0.00 55 1012.5
20260903073632 65 194 6.0 9.0 0.00 0.00 0.00 55 1011.8
20260903072130 67 243 9.0 10.0 0.00 0.00 0.00 53 1011.6
20260903070628 69 301 3.0 5.0 0.00 0.00 0.00 50 1011.4
20260903065123 70 192 10.0 18.0 0.00 0.00 0.00 48 1010.9
20260903063620 71 260 6.0 8.0 0.00 0.00 0.00 46 1010.9
20260903062117 72 229 5.0 7.0 0.00 0.00 0.00 44 1010.5
20260903060612 73 207 4.0 6.0 0.00 0.00 0.00 43 1010.4
20260903055109 74 218 3.0 3.0 0.00 0.00 0.00 41 1010.2
20260903053607 75 203 4.0 6.0 0.00 0.00 0.00 39 1009.9
20260903052106 75 321 2.0 2.0 0.00 0.00 0.00 39 1009.5
20260903050601 75 167 11.0 15.0 0.00 0.00 0.00 38 1009.4
20260903045059 76 217 3.0 5.0 0.00 0.00 0.00 38 1009.1
20260903043557 77 271 2.0 5.0 0.00 0.00 0.00 36 1009.2
20260903042052 78 202 7.0 10.0 0.00 0.00 0.00 36 1009.0
20260903040548 77 212 8.0 11.0 0.00 0.00 0.00 35 1009.0
20260903035048 78 193 4.0 7.0 0.00 0.00 0.00 36 1008.6